sat.trackr.live / text

‹ back to catalog

ERMIS-2

NORAD 68420 · 2026-067E

PAYLOAD ACTIVE UNKNOWN

§ Identity

Operator
Country
GREC
Launch date
2026-03-30
Launch site
AFWTR
Launch vehicle
Mass (kg)
RCS (m²)

External: N2YO · Heavens-Above · Gunter

§ Orbital elements

Epoch: 2026-09-20T02:46:48.518976Z

Period
94.66 min
Inclination
97.4569°
Eccentricity
0.0001037
Mean motion
15.21267388 rev/d
Perigee alt
501.3 km
Apogee alt
502.7 km
Semi-major
6,880.2 km
B*
3.1430e-4
RAAN
220.5564°
Arg perigee
72.9902°
Mean anomaly
287.1448°
Rev number
2,637

§ Raw data

ERMIS-21 68420U 26067E   26263.11583934  .00006956  00000+0  31430-3 0  99932 68420  97.4569 220.5564 0001037  72.9902 287.1448 15.21267388 26371

JSON: /api/v1/satellites/68420 · /tle

For live sub-satellite position, see the globe view (requires WebGL).

§ Visibility from observer

Set your observer location to see the next 7 days of passes ≥ 10°. The values pass through the URL so the page stays shareable.

No JS? Fill the form by hand. The geolocation button needs JavaScript.

§ Radio — SatNOGS DB

ModeDescriptionDownlinkUplink
FM Mode S - Transmitter 2.218 GHz
FSK AX.100 Mode 5 Mode U - Transmitter 401.250 MHz

2 transmitters · refreshed weekly from db.satnogs.org